Louisa, VA

5:35 AM EDT on September 28, 2016 (GMT -0400)
Louisa County-Freeman

Weather History for KLKU - March, 2012

Change the Weather History Date:

Saturday, March 3, 2012

  Actual Average (KCHO) Record (KCHO)
Temperature  
Mean Temperature 53 °F 42 °F  
Max Temperature 60 °F 53 °F 82 °F (1923)
Min Temperature 46 °F 31 °F 9 °F (1925)
Degree Days  
Heating Degree Days 12 23  
Month to date heating degree days 70  
Since 1 July heating degree days 3482  
Cooling Degree Days 0 0  
Month to date cooling degree days 0  
Year to date cooling degree days 0  
Growing Degree Days 3 (Base 50)    
Moisture  
Dew Point 38 °F    
Average Humidity 64    
Maximum Humidity 100    
Minimum Humidity 25    
Precipitation  
Precipitation 0.04 in 0.10 in 1.12 in (1960)
Month to date precipitation 0.29  
Year to date precipitation 5.76  
Sea Level Pressure  
Sea Level Pressure 29.62 in    
Wind  
Wind Speed 4 mph (WSW)    
Max Wind Speed 16 mph    
Max Gust Speed 20 mph    
Visibility 8 miles    
Events Rain    
T = Trace of Precipitation, MM = Missing Value Source: NWS Daily Summary

Daily Weather History Graph

Daily Weather History Graph

Search for Another Location

Airport or City:

Trip Planner

Search our weather history database for the weather conditions in past years. The results will help you decide how hot, cold, wet, or windy it might be!

Date:

Astronomy

Mar. 03, 2012 Rise Set
Actual Time 6:40 AM EST 6:07 PM EST
Civil Twilight 6:13 AM EST 6:34 PM EST
Nautical Twilight 5:43 AM EST 7:04 PM EST
Astronomical Twilight 5:12 AM EST 7:35 PM EST
Moon 1:19 PM EST (3/3) 3:11 AM EST (3/3)
Length of Visible Light 12h 20m
Length of Day
11h 27m
Waxing Gibbous, 75% of the Moon is Illuminated
Mar 3
Waxing Gibbous
Mar 8
Full
Mar 14
Last Quarter
Mar 22
New
Mar 30
First Quarter

Hourly Weather History & Observations

Time (EST) Temp. Windchill Dew Point Humidity Pressure Visibility Wind Dir Wind Speed Gust Speed Precip Events Conditions
12:15 AM 46.4 °F - 44.6 °F 93% 29.68 in 1.2 mi Calm Calm - N/A   Overcast
12:35 AM 46.4 °F 44.3 °F 44.6 °F 93% 29.67 in 1.8 mi NNE 4.6 mph 18.4 mph 0.02 in   Light Drizzle
1:15 AM 46.4 °F 45.2 °F 44.6 °F 93% 29.65 in 2.5 mi East 3.5 mph - N/A   Light Drizzle
1:35 AM 46.4 °F - 44.6 °F 93% 29.65 in 4.0 mi Calm Calm - N/A   Overcast
1:55 AM 46.4 °F - 44.6 °F 93% 29.64 in 4.0 mi Calm Calm - N/A   Overcast
2:15 AM 46.4 °F - 44.6 °F 93% 29.61 in 4.0 mi Calm Calm - 0.01 in Rain Light Rain
2:35 AM 46.4 °F 45.2 °F 44.6 °F 93% 29.60 in 5.0 mi SSE 3.5 mph - 0.02 in   Light Drizzle
2:55 AM 46.4 °F 45.2 °F 44.6 °F 93% 29.59 in 2.5 mi South 3.5 mph - 0.02 in   Overcast
3:15 AM 46.4 °F 44.3 °F 44.6 °F 93% 29.56 in 3.0 mi SSE 4.6 mph - N/A   Overcast
3:35 AM 46.4 °F - 44.6 °F 93% 29.55 in 5.0 mi Calm Calm - N/A Rain Light Rain
3:55 AM 46.4 °F - 44.6 °F 93% 29.55 in 7.0 mi Calm Calm - 0.01 in Rain Light Rain
4:15 AM 46.4 °F 45.2 °F 44.6 °F 93% 29.55 in 4.0 mi SW 3.5 mph - N/A   Overcast
4:35 AM 46.4 °F 45.2 °F 44.6 °F 93% 29.53 in 4.0 mi SSW 3.5 mph - N/A   Overcast
4:55 AM 46.4 °F 42.9 °F 46.4 °F 100% 29.57 in 4.0 mi SW 6.9 mph - N/A   Overcast
5:15 AM 46.4 °F 43.5 °F 46.4 °F 100% 29.56 in 3.0 mi SW 5.8 mph - 0.01 in   Overcast
5:35 AM 48.2 °F - 46.4 °F 93% 29.57 in 4.0 mi WSW 5.8 mph - 0.01 in   Light Drizzle
5:55 AM 48.2 °F - 46.4 °F 93% 29.56 in 5.0 mi WSW 4.6 mph - 0.01 in   Overcast
6:15 AM 48.2 °F - 46.4 °F 93% 29.56 in 5.0 mi SW 4.6 mph - N/A   Overcast
6:35 AM 48.2 °F - 46.4 °F 93% 29.56 in 5.0 mi SW 4.6 mph - N/A   Overcast
7:15 AM 48.2 °F - 46.4 °F 93% 29.58 in 7.0 mi WSW 8.1 mph - N/A   Overcast
7:35 AM 48.2 °F - 46.4 °F 93% 29.58 in 7.0 mi SW 4.6 mph - N/A   Drizzle
7:55 AM 50.0 °F - 46.4 °F 87% 29.59 in 7.0 mi SW 3.5 mph - N/A   Light Drizzle
8:15 AM 50.0 °F - 46.4 °F 87% 29.57 in 5.0 mi Calm Calm - N/A   Overcast
8:35 AM 50.0 °F - 48.2 °F 94% 29.56 in 7.0 mi Calm Calm - N/A   Overcast
8:55 AM 50.0 °F - 48.2 °F 94% 29.58 in 10.0 mi Calm Calm - N/A   Overcast
9:15 AM 50.0 °F - 48.2 °F 94% 29.59 in 10.0 mi SW 4.6 mph - N/A Rain Light Rain
9:35 AM 51.8 °F - 48.2 °F 88% 29.59 in 10.0 mi West 3.5 mph - N/A   Overcast
9:55 AM 53.6 °F - 48.2 °F 82% 29.60 in 10.0 mi SW 3.5 mph - N/A   Overcast
10:15 AM 53.6 °F - 50.0 °F 88% 29.61 in 10.0 mi SSW 3.5 mph - N/A   Overcast
10:35 AM 53.6 °F - 50.0 °F 88% 29.62 in 10.0 mi Calm Calm - N/A   Overcast
10:55 AM 55.4 °F - 50.0 °F 82% 29.63 in 10.0 mi WSW 4.6 mph - N/A   Mostly Cloudy
11:15 AM 55.4 °F - 50.0 °F 82% 29.64 in 10.0 mi Calm Calm - N/A   Scattered Clouds
11:35 AM 55.4 °F - 48.2 °F 77% 29.62 in 10.0 mi Calm Calm - N/A   Clear
12:15 PM 57.2 °F - 44.6 °F 63% 29.63 in 10.0 mi West 4.6 mph - N/A   Clear
12:35 PM 57.2 °F - 42.8 °F 59% 29.63 in 10.0 mi West 9.2 mph - N/A   Clear
12:55 PM 59.0 °F - 42.8 °F 55% 29.63 in 10.0 mi West 11.5 mph 17.3 mph N/A   Clear
1:15 PM 57.2 °F - 35.6 °F 44% 29.62 in 10.0 mi West 10.4 mph 19.6 mph N/A   Scattered Clouds
1:35 PM 57.2 °F - 30.2 °F 36% 29.61 in 10.0 mi West 9.2 mph - N/A   Scattered Clouds
1:55 PM 57.2 °F - 30.2 °F 36% 29.62 in 10.0 mi West 10.4 mph 16.1 mph N/A   Clear
2:15 PM 60.8 °F - 30.2 °F 31% 29.62 in 10.0 mi West 10.4 mph - N/A   Clear
2:35 PM 60.8 °F - 30.2 °F 31% 29.62 in 10.0 mi West 9.2 mph 18.4 mph N/A   Clear
2:55 PM 60.8 °F - 30.2 °F 31% 29.62 in 10.0 mi West 9.2 mph 17.3 mph N/A   Clear
3:15 PM 60.8 °F - 30.2 °F 31% 29.63 in 10.0 mi West 10.4 mph 19.6 mph N/A   Clear
3:35 PM 60.8 °F - 28.4 °F 29% 29.63 in 10.0 mi West 13.8 mph 19.6 mph N/A   Clear
3:55 PM 60.8 °F - 26.6 °F 27% 29.64 in 10.0 mi West 12.7 mph 17.3 mph N/A   Clear
4:15 PM 60.8 °F - 24.8 °F 25% 29.64 in 10.0 mi West 15.0 mph 19.6 mph N/A   Clear
4:35 PM 60.8 °F - 24.8 °F 25% 29.64 in 10.0 mi WSW 9.2 mph - N/A   Clear
4:55 PM 59.0 °F - 23.0 °F 25% 29.64 in 10.0 mi West 11.5 mph 16.1 mph N/A   Clear
5:15 PM 59.0 °F - 23.0 °F 25% 29.65 in 10.0 mi West 6.9 mph - N/A   Clear
5:35 PM 57.2 °F - 24.8 °F 29% 29.66 in 10.0 mi West 5.8 mph - N/A   Clear
5:55 PM 55.4 °F - 24.8 °F 31% 29.67 in 10.0 mi WSW 3.5 mph - N/A   Clear
6:15 PM 55.4 °F - 24.8 °F 31% 29.68 in 10.0 mi WSW 3.5 mph - N/A   Clear
6:35 PM 55.4 °F - 24.8 °F 31% 29.68 in 10.0 mi West 4.6 mph - N/A   Clear
6:55 PM 51.8 °F - 33.8 °F 50% 29.69 in 10.0 mi WSW 3.5 mph - N/A   Clear
7:15 PM 53.6 °F - 24.8 °F 33% 29.69 in 10.0 mi West 4.6 mph - N/A   Clear
7:35 PM 51.8 °F - 26.6 °F 38% 29.69 in 10.0 mi Calm Calm - N/A   Clear
7:55 PM 50.0 °F - 30.2 °F 47% 29.71 in 10.0 mi WSW 3.5 mph - N/A   Clear
8:15 PM 51.8 °F - 24.8 °F 35% 29.72 in 10.0 mi West 6.9 mph - N/A   Clear
8:35 PM 53.6 °F - 21.2 °F 28% 29.71 in 10.0 mi West 9.2 mph - N/A   Clear
8:55 PM 53.6 °F - 21.2 °F 28% 29.71 in 10.0 mi WNW 8.1 mph - N/A   Clear
9:15 PM 51.8 °F - 21.2 °F 30% 29.71 in 10.0 mi West 6.9 mph - N/A   Clear
9:35 PM 51.8 °F - 23.0 °F 33% 29.71 in 10.0 mi West 4.6 mph - N/A   Clear
9:55 PM 53.6 °F - 21.2 °F 28% 29.69 in 10.0 mi WNW 16.1 mph - N/A   Clear
10:15 PM 53.6 °F - 19.4 °F 26% 29.68 in 10.0 mi WNW 10.4 mph 16.1 mph N/A   Clear
10:35 PM 53.6 °F - 19.4 °F 26% 29.68 in 10.0 mi WNW 9.2 mph 17.3 mph N/A   Mostly Cloudy
10:55 PM 53.6 °F - 19.4 °F 26% 29.69 in 10.0 mi WNW 9.2 mph 17.3 mph N/A   Overcast
11:15 PM 53.6 °F - 19.4 °F 26% 29.70 in 10.0 mi WNW 9.2 mph - N/A   Overcast
11:35 PM 53.6 °F - 19.4 °F 26% 29.69 in 10.0 mi NW 6.9 mph - N/A   Overcast
11:55 PM 51.8 °F - 19.4 °F 28% 29.67 in 10.0 mi NNW 9.2 mph - N/A   Scattered Clouds